OneWeb SL0262

operational
NORAD ID: 48980 Int'l Des: 2021-060 Owner: ONEWEBN Country: UK Constellation: oneweb
LEOCIRCULARPOLARONEWEB_TYPE

OneWeb SL0262について

説明を読み込み中...

リアルタイム位置

3D地球を読み込み中...

次回通過

高度履歴

Altitude vs Time

uPlot chart will show altitude changes over time

軌道要素

1 48980U 21060P 25351.33069359 .00000047 00000-0 89927-4 0 9992
2 48980 87.9047 264.9801 0001575 63.1529 296.9763 13.16596129215698
Epoch: Dec 17, 2025 • Age: 11 hours

現在のステータス

高度 1204.9 km
速度 7.26 km/s
衛星直下点 51.61°N, 106.25°W
打ち上げ日 Jul 1, 2021
運用期間 4.4 years
タイプ internet

技術仕様

分類 Payload
質量 148.00 kg
乾燥質量 140.00 kg
総質量 148.00 kg
長さ 1.30 m
直径 1.00 m
スパン 5.00 m
形状 Trapezoid+2 pan
製造者 ONEWUS
バスタイプ ARROW
フェーズステータス In Orbit
所有者/国 ONEWEBN/UK

大規模コンステレーション

Loading constellations...